sat.trackr.live / text

‹ back to catalog

STARLINK-32279

NORAD 61003 · 2024-158P

PAYLOAD ACTIVE UNKNOWN

§ Identity

Operator
Country
US
Launch date
2024-09-05
Launch site
AFETR
Launch vehicle
Mass (kg)
RCS (m²)

Purposes: comms

External: N2YO · Heavens-Above · Gunter

§ Orbital elements

Epoch: 2026-09-20T15:07:33.496320Z

Period
93.85 min
Inclination
53.1609°
Eccentricity
0.0001287
Mean motion
15.34394640 rev/d
Perigee alt
461.8 km
Apogee alt
463.6 km
Semi-major
6,840.9 km
B*
6.8428e-5
RAAN
236.7827°
Arg perigee
98.1783°
Mean anomaly
261.9365°
Rev number
11,554

§ Raw data

STARLINK-322791 61003U 24158P   26263.63024880  .00001936  00000+0  68428-4 0  99902 61003  53.1609 236.7827 0001287  98.1783 261.9365 15.34394640115542

JSON: /api/v1/satellites/61003 · /tle

For live sub-satellite position, see the globe view (requires WebGL).

§ Visibility from observer

Set your observer location to see the next 7 days of passes ≥ 10°. The values pass through the URL so the page stays shareable.

No JS? Fill the form by hand. The geolocation button needs JavaScript.